Find Local Weather

World > North America > United States > Florida

Jacksonville, Florida Regional Weather

Lat: 30.33N, Lon: 81.66W
Wx Zone: FLZ025
Feedback
Expires:201812190800;;014885
ASUS42 KTBW 190716
RWRFL 
FLORIDA REGIONAL WEATHER ROUNDUP
NATIONAL WEATHER SERVICE TAMPA BAY RUSKIN FL
200 AM EST WED DEC 19 2018

NOTE: "FAIR" INDICATES FEW OR NO CLOUDS BELOW 12,000 FEET WITH NO
SIGNIFICANT WEATHER AND/OR OBSTRUCTIONS TO VISIBILITY.


FLZ011-016>038-118-127-128-134-139-239-190800-
NORTH FLORIDA
  
CITY           SKY/WX    TMP DP  RH WIND       PRES   REMARKS
MARIANNA       FAIR      48  47  96 CALM      30.06F                  
TALLAHASSEE    FAIR      48  46  93 CALM      30.06F                  
PERRY          FAIR      50  48  94 CALM      30.07F                  
LIVE OAK       CLEAR     46  46 100 CALM      30.08S                  
CROSS CITY     FAIR      49  48  97 CALM      30.08R                  
LAKE CITY      FAIR      48  46  93 NE3       30.09S                  
GAINESVILLE    FAIR      50  43  77 CALM      30.10F                  
WILLISTON        N/A    N/A N/A N/A MISG        N/A                   
PALATKA        FAIR      45  45 100 CALM      30.09F                  
MAYPORT NAS    FAIR      53  50  89 N3        30.09S                  
JACKSONVILLE   MOCLDY    45  43  93 NE3       30.07F                  
JAX NAS        MOCLDY    54  51  90 CALM      30.10F                  
JAX CECIL      FAIR      45  45 100 MISG      30.08F FOG              
FERNANDINA BEA FAIR      46  45  98 CALM      30.11R                  
ST AUGUSTINE   FAIR      50  48  93 CALM      30.11S                  
PALM COAST     FAIR      46  46  97 CALM      30.09F                  

STATION/POSITION SKY/WX   TEMP    WIND        PRES    WAVE   SWELL
                          AIR SEA DIR/SP/G            HT/PER HT/PER
                          (F)     (DEG/KT/KT) (MB)    (FT/S) (FT/S)
SHELL POINT                54 60  360/  3/  4 1018.4
KEATON BEACH               52      70/  3/  3 1018.6F
CEDAR KEY                  55      10/  6/  7 1018.8F
FERNANDINA                 52 58  130/  2/  3 1020.2R
30.7N   81.3W                 57                N/A     2/ 9
MAYPORT                    53 60   10/  2/  4 1019.3S
31.4N   80.9W              58 59   30/ 16/ 17 1018.5F   3/ 5   2/ 8
ST AUGUSTINE               57 60  350/  4/  5 1019.1F

$$

SKY/WX - Weather  TMP - Temperature  DP - Dew Point  RH - Relative Humidity
WIND - Wind Direction/Speed PRES - Barometric Pressure